Time,TemperatureF,DewpointF,PressureIn,WindDirection,WindDirectionDegrees,WindSpeedMPH,WindSpeedGustMPH,Humidity,HourlyPrecipIn,Conditions,Clouds,dailyrainin,SoftwareType,DateUTC
2013-02-07 00:00:00,27.7,14.0,29.32,SW,235,0.0,0.0,56,0.00,,---,0.00,VWS V13.00,2013-02-07 09:00:00,
2013-02-07 00:05:00,27.5,13.9,29.32,WSW,237,0.0,0.0,56,0.00,,---,0.00,VWS V13.00,2013-02-07 09:05:00,
2013-02-07 00:10:00,27.7,14.4,29.32,SW,236,0.0,0.0,57,0.00,,---,0.00,VWS V13.00,2013-02-07 09:10:00,
2013-02-07 00:15:00,27.7,14.4,29.32,SW,224,0.0,0.0,57,0.00,,---,0.00,VWS V13.00,2013-02-07 09:15:00,
2013-02-07 00:20:00,27.5,15.4,29.32,SW,228,0.0,0.0,60,0.00,,---,0.00,VWS V13.00,2013-02-07 09:20:00,
2013-02-07 00:25:00,27.5,15.4,29.32,SW,231,0.0,0.0,60,0.00,,---,0.00,VWS V13.00,2013-02-07 09:25:00,
2013-02-07 00:30:00,27.5,15.4,29.32,SW,227,0.0,0.0,60,0.00,,---,0.00,VWS V13.00,2013-02-07 09:30:00,
2013-02-07 00:35:00,27.7,16.0,29.32,SW,230,0.0,0.0,61,0.00,,---,0.00,VWS V13.00,2013-02-07 09:35:00,
2013-02-07 00:40:00,27.7,17.5,29.32,SW,234,0.0,0.0,65,0.00,,---,0.00,VWS V13.00,2013-02-07 09:40:00,
2013-02-07 00:45:00,27.5,16.9,29.32,SW,225,0.0,0.0,64,0.00,,---,0.00,VWS V13.00,2013-02-07 09:45:00,
2013-02-07 00:50:00,27.5,16.9,29.32,SW,225,0.0,0.0,64,0.00,,---,0.00,VWS V13.00,2013-02-07 09:50:00,
2013-02-07 00:55:00,27.5,17.3,29.29,SW,229,0.0,0.0,65,0.00,,---,0.00,VWS V13.00,2013-02-07 09:55:00,
2013-02-07 01:00:00,27.5,17.3,29.29,WSW,237,0.0,0.0,65,0.00,,---,0.00,VWS V13.00,2013-02-07 10:00:00,
2013-02-07 01:05:00,27.5,17.3,29.29,WSW,237,0.0,0.0,65,0.00,,---,0.00,VWS V13.00,2013-02-07 10:05:00,
2013-02-07 01:10:00,27.3,16.8,29.29,WSW,237,0.0,0.0,64,0.00,,---,0.00,VWS V13.00,2013-02-07 10:10:00,
2013-02-07 01:15:00,27.5,17.3,29.29,WSW,237,0.0,0.0,65,0.00,,---,0.00,VWS V13.00,2013-02-07 10:15:00,
2013-02-07 01:20:00,27.7,17.5,29.29,WSW,237,0.0,0.0,65,0.00,,---,0.00,VWS V13.00,2013-02-07 10:20:00,
2013-02-07 01:25:00,27.7,17.5,29.29,WSW,237,0.0,0.0,65,0.00,,---,0.00,VWS V13.00,2013-02-07 10:25:00,
2013-02-07 01:30:00,27.7,17.5,29.29,WSW,237,0.0,0.0,65,0.00,,---,0.00,VWS V13.00,2013-02-07 10:30:00,
2013-02-07 01:35:00,27.7,17.5,29.29,WSW,237,0.0,0.0,65,0.00,,---,0.00,VWS V13.00,2013-02-07 10:35:00,
2013-02-07 01:40:00,27.9,17.6,29.29,WSW,237,0.0,0.0,65,0.00,,---,0.00,VWS V13.00,2013-02-07 10:40:00,
2013-02-07 01:45:00,27.9,18.0,29.29,WSW,237,0.0,0.0,66,0.00,,---,0.00,VWS V13.00,2013-02-07 10:45:00,
2013-02-07 01:50:00,27.9,18.0,29.29,WSW,237,0.0,0.0,66,0.00,,---,0.00,VWS V13.00,2013-02-07 10:50:00,
2013-02-07 01:55:00,27.9,18.0,29.26,WSW,240,0.0,0.0,66,0.00,,---,0.00,VWS V13.00,2013-02-07 10:55:00,
2013-02-07 02:00:00,27.9,18.0,29.26,WSW,247,0.0,0.0,66,0.00,,---,0.00,VWS V13.00,2013-02-07 11:00:00,
2013-02-07 02:05:00,27.9,18.0,29.26,WSW,247,0.0,0.0,66,0.00,,---,0.00,VWS V13.00,2013-02-07 11:05:00,
2013-02-07 02:10:00,27.5,18.0,29.26,WSW,247,0.0,0.0,67,0.00,,---,0.00,VWS V13.00,2013-02-07 11:10:00,
2013-02-07 02:15:00,27.5,18.0,29.26,WSW,247,0.0,0.0,67,0.00,,---,0.00,VWS V13.00,2013-02-07 11:15:00,
2013-02-07 02:20:00,27.9,18.7,29.26,WSW,247,0.0,0.0,68,0.00,,---,0.00,VWS V13.00,2013-02-07 11:20:00,
2013-02-07 02:25:00,27.9,18.7,29.26,SW,214,0.0,0.0,68,0.00,,---,0.00,VWS V13.00,2013-02-07 11:25:00,
2013-02-07 02:30:00,27.7,18.5,29.26,SW,232,0.0,0.0,68,0.00,,---,0.00,VWS V13.00,2013-02-07 11:30:00,
2013-02-07 02:35:00,27.9,18.7,29.26,SW,232,0.0,0.0,68,0.00,,---,0.00,VWS V13.00,2013-02-07 11:35:00,
2013-02-07 02:40:00,27.9,18.7,29.23,SW,232,0.0,0.0,68,0.00,,---,0.00,VWS V13.00,2013-02-07 11:40:00,
2013-02-07 02:45:00,27.9,19.0,29.23,SW,232,0.0,0.0,69,0.00,,---,0.00,VWS V13.00,2013-02-07 11:45:00,
2013-02-07 02:50:00,28.0,19.2,29.23,WSW,248,0.0,0.0,69,0.00,,---,0.00,VWS V13.00,2013-02-07 11:50:00,
2013-02-07 02:55:00,28.0,19.2,29.23,WSW,250,0.0,0.0,69,0.00,,---,0.00,VWS V13.00,2013-02-07 11:55:00,
2013-02-07 03:00:00,28.0,19.2,29.23,West,269,0.0,0.0,69,0.00,,---,0.00,VWS V13.00,2013-02-07 12:00:00,
2013-02-07 03:05:00,28.0,19.5,29.23,West,277,0.0,0.0,70,0.00,,---,0.00,VWS V13.00,2013-02-07 12:05:00,
2013-02-07 03:10:00,28.0,19.5,29.23,WNW,287,0.0,0.0,70,0.00,,---,0.00,VWS V13.00,2013-02-07 12:10:00,
2013-02-07 03:15:00,27.9,19.7,29.23,WNW,287,0.0,0.0,71,0.00,,---,0.00,VWS V13.00,2013-02-07 12:15:00,
2013-02-07 03:20:00,27.9,19.7,29.21,SE,136,0.0,0.0,71,0.00,,---,0.00,VWS V13.00,2013-02-07 12:20:00,
2013-02-07 03:25:00,27.9,19.7,29.21,SE,131,0.0,0.0,71,0.00,,---,0.00,VWS V13.00,2013-02-07 12:25:00,
2013-02-07 03:30:00,28.0,20.2,29.21,SE,131,0.0,0.0,72,0.00,,---,0.00,VWS V13.00,2013-02-07 12:30:00,
2013-02-07 03:35:00,28.0,20.2,29.21,SE,131,0.0,0.0,72,0.00,,---,0.00,VWS V13.00,2013-02-07 12:35:00,
2013-02-07 03:40:00,28.6,21.0,29.21,SE,131,0.0,0.0,73,0.00,,---,0.00,VWS V13.00,2013-02-07 12:40:00,
2013-02-07 03:45:00,28.6,21.0,29.21,SE,130,0.0,0.0,73,0.00,,---,0.00,VWS V13.00,2013-02-07 12:45:00,
2013-02-07 03:50:00,28.6,21.0,29.21,SE,127,0.0,0.0,73,0.00,,---,0.00,VWS V13.00,2013-02-07 12:50:00,
2013-02-07 03:55:00,28.6,21.0,29.21,SE,127,0.0,0.0,73,0.00,,---,0.00,VWS V13.00,2013-02-07 12:55:00,
2013-02-07 04:00:00,28.8,21.2,29.21,SE,127,0.0,0.0,73,0.00,,---,0.00,VWS V13.00,2013-02-07 13:00:00,
2013-02-07 04:05:00,28.8,21.2,29.18,SE,127,0.0,0.0,73,0.00,,---,0.00,VWS V13.00,2013-02-07 13:05:00,
2013-02-07 04:10:00,28.8,21.5,29.18,SE,134,0.0,0.0,74,0.00,,---,0.00,VWS V13.00,2013-02-07 13:10:00,
2013-02-07 04:15:00,28.8,21.5,29.18,North,1,0.0,0.0,74,0.00,,---,0.00,VWS V13.00,2013-02-07 13:15:00,
2013-02-07 04:20:00,28.8,21.5,29.18,NW,312,0.0,0.0,74,0.00,,---,0.00,VWS V13.00,2013-02-07 13:20:00,
2013-02-07 04:25:00,28.6,21.4,29.18,NW,304,0.0,0.0,74,0.00,,---,0.00,VWS V13.00,2013-02-07 13:25:00,
2013-02-07 04:30:00,28.8,21.9,29.18,NW,308,0.0,0.0,75,0.00,,---,0.00,VWS V13.00,2013-02-07 13:30:00,
2013-02-07 04:35:00,28.9,22.0,29.18,NW,309,0.0,0.0,75,0.00,,---,0.00,VWS V13.00,2013-02-07 13:35:00,
2013-02-07 04:40:00,29.1,22.2,29.18,NW,309,0.0,0.0,75,0.00,,---,0.00,VWS V13.00,2013-02-07 13:40:00,
2013-02-07 04:45:00,29.3,22.4,29.18,NW,308,0.0,0.0,75,0.00,,---,0.00,VWS V13.00,2013-02-07 13:45:00,
2013-02-07 04:50:00,29.1,22.2,29.18,NW,309,0.0,0.0,75,0.00,,---,0.00,VWS V13.00,2013-02-07 13:50:00,
2013-02-07 04:55:00,29.1,22.2,29.15,NW,309,0.0,0.0,75,0.00,,---,0.00,VWS V13.00,2013-02-07 13:55:00,
2013-02-07 05:00:00,29.1,22.2,29.15,NW,309,0.0,0.0,75,0.00,,---,0.00,VWS V13.00,2013-02-07 14:00:00,
2013-02-07 05:05:00,29.1,22.2,29.15,NW,309,0.0,0.0,75,0.00,,---,0.00,VWS V13.00,2013-02-07 14:05:00,
2013-02-07 05:10:00,29.3,22.7,29.15,NW,309,0.0,0.0,76,0.00,,---,0.00,VWS V13.00,2013-02-07 14:10:00,
2013-02-07 05:15:00,29.3,22.7,29.15,NW,309,0.0,0.0,76,0.00,,---,0.00,VWS V13.00,2013-02-07 14:15:00,
2013-02-07 05:20:00,29.3,22.7,29.15,NW,309,0.0,0.0,76,0.00,,---,0.00,VWS V13.00,2013-02-07 14:20:00,
2013-02-07 05:25:00,29.5,22.9,29.15,NW,309,0.0,0.0,76,0.00,,---,0.00,VWS V13.00,2013-02-07 14:25:00,
2013-02-07 05:30:00,29.5,22.9,29.15,NW,308,0.0,0.0,76,0.00,,---,0.00,VWS V13.00,2013-02-07 14:30:00,
2013-02-07 05:35:00,29.7,23.0,29.15,NW,309,0.0,0.0,76,0.00,,---,0.00,VWS V13.00,2013-02-07 14:35:00,
2013-02-07 05:40:00,29.5,22.9,29.12,NW,308,0.0,0.0,76,0.00,,---,0.00,VWS V13.00,2013-02-07 14:40:00,
2013-02-07 05:45:00,29.5,22.9,29.12,NW,309,0.0,0.0,76,0.00,,---,0.00,VWS V13.00,2013-02-07 14:45:00,
2013-02-07 05:50:00,29.5,23.2,29.12,North,349,0.0,0.0,77,0.00,,---,0.00,VWS V13.00,2013-02-07 14:50:00,
2013-02-07 05:55:00,29.5,23.2,29.12,North,349,0.0,0.0,77,0.00,,---,0.00,VWS V13.00,2013-02-07 14:55:00,
2013-02-07 06:00:00,29.7,23.6,29.12,North,349,0.0,0.0,78,0.00,,---,0.00,VWS V13.00,2013-02-07 15:00:00,
2013-02-07 06:05:00,29.8,23.8,29.09,NNW,348,0.0,0.0,78,0.00,,---,0.00,VWS V13.00,2013-02-07 15:05:00,
2013-02-07 06:10:00,29.8,23.8,29.09,NNW,339,0.0,0.0,78,0.00,,---,0.00,VWS V13.00,2013-02-07 15:10:00,
2013-02-07 06:15:00,29.8,23.8,29.09,NNW,333,0.0,0.0,78,0.00,,---,0.00,VWS V13.00,2013-02-07 15:15:00,
2013-02-07 06:20:00,30.2,24.5,29.09,NNW,333,0.0,0.0,79,0.00,,---,0.00,VWS V13.00,2013-02-07 15:20:00,
2013-02-07 06:25:00,30.6,24.8,29.09,NNW,333,0.0,0.0,79,0.00,,---,0.00,VWS V13.00,2013-02-07 15:25:00,
2013-02-07 06:30:00,30.6,24.8,29.09,NW,320,0.0,0.0,79,0.00,,---,0.00,VWS V13.00,2013-02-07 15:30:00,
2013-02-07 06:35:00,30.6,24.8,29.09,NW,320,0.0,0.0,79,0.00,,---,0.00,VWS V13.00,2013-02-07 15:35:00,
2013-02-07 06:40:00,30.6,24.8,29.06,North,353,0.0,0.0,79,0.00,,---,0.00,VWS V13.00,2013-02-07 15:40:00,
2013-02-07 06:45:00,31.3,25.8,29.06,North,353,0.0,0.0,80,0.00,,---,0.00,VWS V13.00,2013-02-07 15:45:00,
2013-02-07 06:50:00,31.5,26.0,29.06,North,353,0.0,0.0,80,0.00,,---,0.00,VWS V13.00,2013-02-07 15:50:00,
2013-02-07 06:55:00,31.5,26.0,29.06,North,353,0.0,0.0,80,0.00,,---,0.00,VWS V13.00,2013-02-07 15:55:00,
2013-02-07 07:00:00,31.5,26.0,29.06,North,353,0.0,0.0,80,0.00,,---,0.00,VWS V13.00,2013-02-07 16:00:00,
2013-02-07 07:05:00,31.6,26.2,29.06,North,353,0.0,0.0,80,0.00,,---,0.00,VWS V13.00,2013-02-07 16:05:00,
2013-02-07 07:10:00,31.6,26.2,29.03,North,353,0.0,0.0,80,0.00,,---,0.00,VWS V13.00,2013-02-07 16:10:00,
2013-02-07 07:15:00,31.8,26.4,29.03,North,353,0.0,0.0,80,0.00,,---,0.00,VWS V13.00,2013-02-07 16:15:00,
2013-02-07 07:20:00,32.0,26.5,29.03,North,353,0.0,0.0,80,0.00,,---,0.00,VWS V13.00,2013-02-07 16:20:00,
2013-02-07 07:25:00,32.0,26.8,29.03,North,353,0.0,0.0,81,0.00,,---,0.00,VWS V13.00,2013-02-07 16:25:00,
2013-02-07 07:30:00,32.0,26.8,29.03,North,353,0.0,0.0,81,0.00,,---,0.00,VWS V13.00,2013-02-07 16:30:00,
2013-02-07 07:35:00,32.2,27.0,29.03,North,353,0.0,0.0,81,0.00,,---,0.00,VWS V13.00,2013-02-07 16:35:00,
2013-02-07 07:40:00,32.2,27.0,29.03,North,353,0.0,0.0,81,0.00,,---,0.00,VWS V13.00,2013-02-07 16:40:00,
2013-02-07 07:45:00,32.2,27.0,29.03,North,353,0.0,0.0,81,0.00,,---,0.00,VWS V13.00,2013-02-07 16:45:00,
2013-02-07 07:50:00,32.2,27.0,29.03,North,353,0.0,0.0,81,0.00,,---,0.00,VWS V13.00,2013-02-07 16:50:00,
2013-02-07 07:55:00,32.2,27.0,29.03,North,353,0.0,0.0,81,0.00,,---,0.00,VWS V13.00,2013-02-07 16:55:00,
2013-02-07 08:00:00,32.2,27.0,29.03,SW,232,0.0,0.0,81,0.00,,---,0.00,VWS V13.00,2013-02-07 17:00:00,
2013-02-07 08:05:00,32.2,27.0,29.03,SW,231,0.0,0.0,81,0.00,,---,0.00,VWS V13.00,2013-02-07 17:05:00,
2013-02-07 08:10:00,32.2,27.3,29.03,West,277,0.0,0.0,82,0.00,,---,0.00,VWS V13.00,2013-02-07 17:10:00,
2013-02-07 08:15:00,32.2,27.3,29.03,West,277,0.0,0.0,82,0.00,,---,0.00,VWS V13.00,2013-02-07 17:15:00,
2013-02-07 08:20:00,32.4,27.5,29.03,West,277,0.0,0.0,82,0.00,,---,0.00,VWS V13.00,2013-02-07 17:20:00,
2013-02-07 08:25:00,32.5,27.7,29.00,West,277,0.0,0.0,82,0.00,,---,0.00,VWS V13.00,2013-02-07 17:25:00,
2013-02-07 08:30:00,32.5,27.7,29.00,WSW,240,0.0,0.0,82,0.00,,---,0.00,VWS V13.00,2013-02-07 17:30:00,
2013-02-07 08:35:00,32.5,27.7,29.00,WSW,240,0.0,0.0,82,0.00,,---,0.00,VWS V13.00,2013-02-07 17:35:00,
2013-02-07 08:40:00,32.5,27.7,29.00,WSW,240,0.0,0.0,82,0.00,,---,0.00,VWS V13.00,2013-02-07 17:40:00,
2013-02-07 08:45:00,32.7,28.1,29.00,WSW,240,0.0,0.0,83,0.00,,---,0.00,VWS V13.00,2013-02-07 17:45:00,
2013-02-07 08:50:00,32.7,28.1,29.00,WSW,240,0.0,0.0,83,0.00,,---,0.00,VWS V13.00,2013-02-07 17:50:00,
2013-02-07 08:55:00,32.7,28.1,29.00,WSW,240,0.0,0.0,83,0.00,,---,0.00,VWS V13.00,2013-02-07 17:55:00,
2013-02-07 09:00:00,32.7,28.1,29.00,WSW,240,0.0,0.0,83,0.00,,---,0.00,VWS V13.00,2013-02-07 18:00:00,
2013-02-07 09:05:00,32.7,28.1,29.00,SW,221,0.0,0.0,83,0.00,,---,0.00,VWS V13.00,2013-02-07 18:05:00,
2013-02-07 09:10:00,32.7,28.1,29.00,SW,221,0.0,0.0,83,0.00,,---,0.00,VWS V13.00,2013-02-07 18:10:00,
2013-02-07 09:15:00,32.7,28.1,29.00,SW,217,0.0,0.0,83,0.00,,---,0.00,VWS V13.00,2013-02-07 18:15:00,
2013-02-07 09:20:00,32.7,28.1,28.97,SW,217,0.0,0.0,83,0.00,,---,0.00,VWS V13.00,2013-02-07 18:20:00,
2013-02-07 09:25:00,32.7,28.1,28.97,SSW,207,0.0,0.0,83,0.00,,---,0.00,VWS V13.00,2013-02-07 18:25:00,
2013-02-07 09:30:00,32.7,28.1,28.97,SW,233,0.0,0.0,83,0.00,,---,0.00,VWS V13.00,2013-02-07 18:30:00,
2013-02-07 09:35:00,32.7,28.4,28.97,SW,233,0.0,0.0,84,0.00,,---,0.00,VWS V13.00,2013-02-07 18:35:00,
2013-02-07 09:40:00,32.7,28.4,28.97,SW,233,0.0,0.0,84,0.00,,---,0.00,VWS V13.00,2013-02-07 18:40:00,
2013-02-07 09:45:00,32.9,28.9,28.97,SW,222,0.0,0.0,85,0.00,,---,0.00,VWS V13.00,2013-02-07 18:45:00,
2013-02-07 09:50:00,32.9,29.2,28.97,WSW,239,0.0,0.0,86,0.00,,---,0.00,VWS V13.00,2013-02-07 18:50:00,
2013-02-07 09:55:00,33.1,29.4,28.97,SW,233,0.0,0.0,86,0.00,,---,0.00,VWS V13.00,2013-02-07 18:55:00,
2013-02-07 10:00:00,33.3,29.5,28.97,SW,222,0.0,0.0,86,0.00,,---,0.00,VWS V13.00,2013-02-07 19:00:00,
2013-02-07 10:05:00,33.3,29.8,28.97,SW,222,0.0,0.0,87,0.00,,---,0.00,VWS V13.00,2013-02-07 19:05:00,
2013-02-07 10:10:00,33.3,29.8,28.97,SW,229,0.0,0.0,87,0.00,,---,0.00,VWS V13.00,2013-02-07 19:10:00,
2013-02-07 10:15:00,33.6,30.2,28.97,SW,229,0.0,0.0,87,0.00,,---,0.00,VWS V13.00,2013-02-07 19:15:00,
2013-02-07 10:20:00,33.8,30.1,28.97,SW,229,0.0,0.0,86,0.00,,---,0.00,VWS V13.00,2013-02-07 19:20:00,
2013-02-07 10:25:00,34.0,30.2,28.97,SW,229,0.0,0.0,86,0.00,,---,0.00,VWS V13.00,2013-02-07 19:25:00,
2013-02-07 10:30:00,34.3,30.9,28.97,SW,229,0.0,0.0,87,0.00,,---,0.00,VWS V13.00,2013-02-07 19:30:00,
2013-02-07 10:35:00,34.3,30.9,28.97,SW,229,0.0,0.0,87,0.00,,---,0.00,VWS V13.00,2013-02-07 19:35:00,
2013-02-07 10:40:00,34.9,31.4,28.97,SW,229,0.0,0.0,87,0.00,,---,0.00,VWS V13.00,2013-02-07 19:40:00,
2013-02-07 10:45:00,34.9,31.4,28.97,WSW,256,0.0,0.0,87,0.00,,---,0.00,VWS V13.00,2013-02-07 19:45:00,
2013-02-07 10:50:00,35.4,31.9,28.97,SW,232,0.0,0.0,87,0.00,,---,0.00,VWS V13.00,2013-02-07 19:50:00,
2013-02-07 10:55:00,36.0,32.5,28.97,SW,227,0.0,0.0,87,0.00,,---,0.00,VWS V13.00,2013-02-07 19:55:00,
2013-02-07 11:00:00,36.1,32.9,28.97,SW,227,0.0,0.0,88,0.00,,---,0.00,VWS V13.00,2013-02-07 20:00:00,
2013-02-07 11:05:00,36.7,33.5,28.97,SSW,211,0.0,0.0,88,0.00,,---,0.00,VWS V13.00,2013-02-07 20:05:00,
2013-02-07 11:10:00,36.7,33.5,28.97,East,92,0.0,0.0,88,0.00,,---,0.00,VWS V13.00,2013-02-07 20:10:00,
2013-02-07 11:15:00,36.7,33.5,28.97,East,92,0.0,0.0,88,0.00,,---,0.00,VWS V13.00,2013-02-07 20:15:00,
2013-02-07 11:20:00,36.7,33.5,28.97,SE,143,0.0,0.0,88,0.00,,---,0.00,VWS V13.00,2013-02-07 20:20:00,
2013-02-07 11:25:00,36.3,32.8,28.97,SE,143,0.0,0.0,87,0.00,,---,0.00,VWS V13.00,2013-02-07 20:25:00,
2013-02-07 11:30:00,36.5,33.0,28.97,East,98,0.0,0.0,87,0.00,,---,0.00,VWS V13.00,2013-02-07 20:30:00,
2013-02-07 11:35:00,36.7,33.5,28.97,South,171,0.0,0.0,88,0.00,,---,0.00,VWS V13.00,2013-02-07 20:35:00,
2013-02-07 11:40:00,36.7,33.5,28.97,ENE,57,0.0,0.0,88,0.00,,---,0.00,VWS V13.00,2013-02-07 20:40:00,
2013-02-07 11:45:00,36.7,33.5,28.97,East,90,0.0,0.0,88,0.00,,---,0.00,VWS V13.00,2013-02-07 20:45:00,
2013-02-07 11:50:00,37.0,33.2,28.97,East,90,0.0,0.0,86,0.00,,---,0.00,VWS V13.00,2013-02-07 20:50:00,
2013-02-07 11:55:00,37.0,33.2,28.97,ESE,103,0.0,0.0,86,0.00,,---,0.00,VWS V13.00,2013-02-07 20:55:00,
2013-02-07 12:00:00,37.6,33.8,28.97,ESE,104,0.0,0.0,86,0.00,,---,0.00,VWS V13.00,2013-02-07 21:00:00,
2013-02-07 12:05:00,37.9,34.4,28.97,ESE,104,0.0,0.0,87,0.00,,---,0.00,VWS V13.00,2013-02-07 21:05:00,
2013-02-07 12:10:00,38.1,34.6,28.97,ESE,104,0.0,0.0,87,0.00,,---,0.00,VWS V13.00,2013-02-07 21:10:00,
2013-02-07 12:15:00,38.8,35.3,28.97,ESE,104,0.0,0.0,87,0.00,,---,0.00,VWS V13.00,2013-02-07 21:15:00,
2013-02-07 12:20:00,38.3,33.9,28.97,ESE,104,0.0,0.0,84,0.00,,---,0.00,VWS V13.00,2013-02-07 21:20:00,
2013-02-07 12:25:00,38.5,34.1,28.97,ESE,104,0.0,0.0,84,0.00,,---,0.00,VWS V13.00,2013-02-07 21:25:00,
2013-02-07 12:30:00,38.5,34.1,28.97,ESE,104,0.0,0.0,84,0.00,,---,0.00,VWS V13.00,2013-02-07 21:30:00,
2013-02-07 12:35:00,39.2,34.8,28.97,ESE,104,0.0,0.0,84,0.00,,---,0.00,VWS V13.00,2013-02-07 21:35:00,
2013-02-07 12:40:00,39.9,35.8,29.00,SSW,196,0.0,0.0,85,0.00,,---,0.00,VWS V13.00,2013-02-07 21:40:00,
2013-02-07 12:45:00,40.3,36.1,29.00,SSW,196,0.0,0.0,85,0.00,,---,0.00,VWS V13.00,2013-02-07 21:45:00,
2013-02-07 12:50:00,40.6,36.2,29.00,SSW,196,0.0,0.0,84,0.00,,---,0.00,VWS V13.00,2013-02-07 21:50:00,
2013-02-07 12:55:00,40.6,36.2,29.00,SSW,196,0.0,0.0,84,0.00,,---,0.00,VWS V13.00,2013-02-07 21:55:00,
2013-02-07 13:00:00,40.5,35.7,29.00,South,169,0.0,0.0,83,0.00,,---,0.00,VWS V13.00,2013-02-07 22:00:00,
2013-02-07 13:05:00,40.3,35.5,29.00,South,169,0.0,0.0,83,0.00,,---,0.00,VWS V13.00,2013-02-07 22:05:00,
2013-02-07 13:10:00,40.1,35.1,29.00,South,169,0.0,0.0,82,0.00,,---,0.00,VWS V13.00,2013-02-07 22:10:00,
2013-02-07 13:15:00,41.0,36.2,29.00,SSW,199,0.0,0.0,83,0.00,,---,0.00,VWS V13.00,2013-02-07 22:15:00,
2013-02-07 13:20:00,41.0,36.2,29.00,SSW,199,0.0,0.0,83,0.00,,---,0.00,VWS V13.00,2013-02-07 22:20:00,
2013-02-07 13:25:00,40.5,34.8,29.00,SSW,199,0.0,0.0,80,0.00,,---,0.00,VWS V13.00,2013-02-07 22:25:00,
2013-02-07 13:30:00,40.5,34.8,29.00,South,184,0.0,0.0,80,0.00,,---,0.00,VWS V13.00,2013-02-07 22:30:00,
2013-02-07 13:35:00,40.8,35.5,29.00,South,184,0.0,0.0,81,0.00,,---,0.00,VWS V13.00,2013-02-07 22:35:00,
2013-02-07 13:40:00,40.8,35.5,29.00,SSW,196,0.0,0.0,81,0.00,,---,0.00,VWS V13.00,2013-02-07 22:40:00,
2013-02-07 13:45:00,41.5,36.2,29.00,SSW,196,0.0,0.0,81,0.00,,---,0.00,VWS V13.00,2013-02-07 22:45:00,
2013-02-07 13:50:00,41.5,36.2,29.00,SSW,196,0.0,0.0,81,0.00,,---,0.00,VWS V13.00,2013-02-07 22:50:00,
2013-02-07 13:54:00,41.9,35.5,29.03,SSW,195,0.0,0.0,78,0.00,,---,0.00,VWS V13.00,2013-02-07 22:54:00,
2013-02-07 13:59:00,41.9,35.5,29.03,SSW,195,0.0,0.0,78,0.00,,---,0.00,VWS V13.00,2013-02-07 22:59:00,
2013-02-07 14:04:00,41.9,35.5,29.00,SSE,153,0.0,0.0,78,0.00,,---,0.00,VWS V13.00,2013-02-07 23:04:00,
2013-02-07 14:09:00,39.9,32.7,29.00,SE,135,0.0,0.0,75,0.00,,---,0.00,VWS V13.00,2013-02-07 23:09:00,
2013-02-07 14:14:00,39.9,32.7,29.00,SE,135,0.0,0.0,75,0.00,,---,0.00,VWS V13.00,2013-02-07 23:14:00,
2013-02-07 14:19:00,39.2,32.3,29.00,East,88,0.0,0.0,76,0.00,,---,0.00,VWS V13.00,2013-02-07 23:19:00,
2013-02-07 14:24:00,39.2,32.3,29.03,East,91,0.0,0.0,76,0.00,,---,0.00,VWS V13.00,2013-02-07 23:24:00,
2013-02-07 14:29:00,39.2,32.3,29.03,East,79,0.0,0.0,76,0.00,,---,0.00,VWS V13.00,2013-02-07 23:29:00,
2013-02-07 14:34:00,38.8,34.4,29.03,East,82,0.0,0.0,84,0.00,,---,0.00,VWS V13.00,2013-02-07 23:34:00,
2013-02-07 14:39:00,38.8,34.4,29.03,East,82,0.0,0.0,84,0.00,,---,0.00,VWS V13.00,2013-02-07 23:39:00,
2013-02-07 14:44:00,38.5,34.7,29.03,East,82,0.0,0.0,86,0.00,,---,0.00,VWS V13.00,2013-02-07 23:44:00,
2013-02-07 14:49:00,38.5,34.7,29.03,East,79,0.0,0.0,86,0.00,,---,0.00,VWS V13.00,2013-02-07 23:49:00,
2013-02-07 14:54:00,38.7,35.1,29.03,East,79,0.0,0.0,87,0.00,,---,0.00,VWS V13.00,2013-02-07 23:54:00,
2013-02-07 14:59:00,38.7,35.1,29.03,North,353,0.0,0.0,87,0.00,,---,0.00,VWS V13.00,2013-02-07 23:59:00,
2013-02-07 15:04:00,38.7,35.1,29.03,North,353,0.0,0.0,87,0.00,,---,0.00,VWS V13.00,2013-02-08 00:04:00,
2013-02-07 15:09:00,40.1,36.5,29.03,SW,224,0.0,0.0,87,0.00,,---,0.00,VWS V13.00,2013-02-08 00:09:00,
2013-02-07 15:14:00,40.1,36.5,29.03,SSW,202,0.0,0.0,87,0.00,,---,0.00,VWS V13.00,2013-02-08 00:14:00,
2013-02-07 15:19:00,40.3,36.7,29.03,SSW,202,0.0,0.0,87,0.00,,---,0.00,VWS V13.00,2013-02-08 00:19:00,
2013-02-07 15:24:00,40.3,36.4,29.03,South,186,0.0,0.0,86,0.00,,---,0.00,VWS V13.00,2013-02-08 00:24:00,
2013-02-07 15:29:00,40.1,36.3,29.03,SSE,168,0.0,0.0,86,0.00,,---,0.00,VWS V13.00,2013-02-08 00:29:00,
2013-02-07 15:34:00,40.1,36.3,29.03,South,184,0.0,0.0,86,0.00,,---,0.00,VWS V13.00,2013-02-08 00:34:00,
2013-02-07 15:39:00,40.1,36.3,29.03,SSW,200,0.0,0.0,86,0.00,,---,0.00,VWS V13.00,2013-02-08 00:39:00,
2013-02-07 15:44:00,39.4,35.2,29.03,SSW,200,0.0,0.0,85,0.00,,---,0.00,VWS V13.00,2013-02-08 00:44:00,
2013-02-07 15:49:00,39.2,35.1,29.03,SSE,164,0.0,0.0,85,0.00,,---,0.00,VWS V13.00,2013-02-08 00:49:00,
2013-02-07 15:54:00,38.7,34.5,29.03,SSE,163,0.0,0.0,85,0.00,,---,0.00,VWS V13.00,2013-02-08 00:54:00,
2013-02-07 15:59:00,38.5,34.4,29.03,SSE,163,0.0,0.0,85,0.00,,---,0.00,VWS V13.00,2013-02-08 00:59:00,
2013-02-07 16:04:00,38.7,34.5,29.03,SSE,163,0.0,0.0,85,0.00,,---,0.00,VWS V13.00,2013-02-08 01:04:00,
2013-02-07 16:09:00,38.7,34.5,29.03,SSE,150,0.0,0.0,85,0.00,,---,0.00,VWS V13.00,2013-02-08 01:09:00,
2013-02-07 16:14:00,38.5,34.4,29.03,SSE,150,0.0,0.0,85,0.00,,---,0.00,VWS V13.00,2013-02-08 01:14:00,
2013-02-07 16:19:00,38.5,34.4,29.03,SSE,150,0.0,0.0,85,0.00,,---,0.00,VWS V13.00,2013-02-08 01:19:00,
2013-02-07 16:24:00,38.5,34.4,29.06,SSE,150,0.0,0.0,85,0.00,,---,0.00,VWS V13.00,2013-02-08 01:24:00,
2013-02-07 16:29:00,37.8,33.4,29.06,SSE,150,0.0,0.0,84,0.00,,---,0.00,VWS V13.00,2013-02-08 01:29:00,
2013-02-07 16:34:00,37.8,33.4,29.06,SSE,150,0.0,0.0,84,0.00,,---,0.00,VWS V13.00,2013-02-08 01:34:00,
2013-02-07 16:39:00,37.0,32.7,29.06,SSE,150,0.0,0.0,84,0.00,,---,0.00,VWS V13.00,2013-02-08 01:39:00,
2013-02-07 16:44:00,37.0,32.7,29.06,SSE,150,0.0,0.0,84,0.00,,---,0.00,VWS V13.00,2013-02-08 01:44:00,
2013-02-07 16:49:00,37.0,32.7,29.06,SSE,150,0.0,0.0,84,0.00,,---,0.00,VWS V13.00,2013-02-08 01:49:00,
2013-02-07 16:54:00,36.5,32.1,29.06,SSE,150,0.0,0.0,84,0.00,,---,0.00,VWS V13.00,2013-02-08 01:54:00,
2013-02-07 16:59:00,36.5,32.1,29.06,SSE,150,0.0,0.0,84,0.00,,---,0.00,VWS V13.00,2013-02-08 01:59:00,
2013-02-07 17:04:00,36.1,31.8,29.06,SSE,150,0.0,0.0,84,0.00,,---,0.00,VWS V13.00,2013-02-08 02:04:00,
2013-02-07 17:09:00,36.1,31.8,29.06,SSE,150,0.0,0.0,84,0.00,,---,0.00,VWS V13.00,2013-02-08 02:09:00,
2013-02-07 17:14:00,35.6,31.2,29.06,SSE,150,0.0,0.0,84,0.00,,---,0.00,VWS V13.00,2013-02-08 02:14:00,
2013-02-07 17:19:00,35.4,31.1,29.06,SSE,150,0.0,0.0,84,0.00,,---,0.00,VWS V13.00,2013-02-08 02:19:00,
2013-02-07 17:24:00,35.4,31.1,29.06,SSE,150,0.0,0.0,84,0.00,,---,0.00,VWS V13.00,2013-02-08 02:24:00,
2013-02-07 17:29:00,34.9,30.5,29.06,SSE,150,0.0,0.0,84,0.00,,---,0.00,VWS V13.00,2013-02-08 02:29:00,
2013-02-07 17:34:00,34.9,30.5,29.06,SSE,150,0.0,0.0,84,0.00,,---,0.00,VWS V13.00,2013-02-08 02:34:00,
2013-02-07 17:39:00,34.7,30.4,29.06,SSE,150,0.0,0.0,84,0.00,,---,0.00,VWS V13.00,2013-02-08 02:39:00,
2013-02-07 17:44:00,34.7,30.4,29.06,SSE,150,0.0,0.0,84,0.00,,---,0.00,VWS V13.00,2013-02-08 02:44:00,
2013-02-07 17:49:00,34.5,30.2,29.06,SSE,150,0.0,0.0,84,0.00,,---,0.00,VWS V13.00,2013-02-08 02:49:00,
2013-02-07 17:54:00,34.5,30.5,29.06,SSE,150,0.0,0.0,85,0.00,,---,0.00,VWS V13.00,2013-02-08 02:54:00,
2013-02-07 17:59:00,34.3,30.3,29.06,SSE,150,0.0,0.0,85,0.00,,---,0.00,VWS V13.00,2013-02-08 02:59:00,
2013-02-07 18:04:00,34.2,29.8,29.09,SSE,150,0.0,0.0,84,0.00,,---,0.00,VWS V13.00,2013-02-08 03:04:00,
2013-02-07 18:09:00,34.0,29.7,29.09,SSE,150,0.0,0.0,84,0.00,,---,0.00,VWS V13.00,2013-02-08 03:09:00,
2013-02-07 18:14:00,33.3,29.0,29.09,SSE,150,0.0,0.0,84,0.00,,---,0.00,VWS V13.00,2013-02-08 03:14:00,
2013-02-07 18:19:00,33.1,28.8,29.09,SSE,150,0.0,0.0,84,0.00,,---,0.00,VWS V13.00,2013-02-08 03:19:00,
2013-02-07 18:24:00,33.1,28.8,29.06,SSE,150,0.0,0.0,84,0.00,,---,0.00,VWS V13.00,2013-02-08 03:24:00,
2013-02-07 18:29:00,33.1,29.1,29.06,SSE,150,0.0,0.0,85,0.00,,---,0.00,VWS V13.00,2013-02-08 03:29:00,
2013-02-07 18:34:00,32.7,28.4,29.06,SSE,150,0.0,0.0,84,0.00,,---,0.00,VWS V13.00,2013-02-08 03:34:00,
2013-02-07 18:39:00,32.7,28.7,29.09,SSE,150,0.0,0.0,85,0.00,,---,0.00,VWS V13.00,2013-02-08 03:39:00,
2013-02-07 18:44:00,32.7,28.7,29.09,SSE,150,0.0,0.0,85,0.00,,---,0.00,VWS V13.00,2013-02-08 03:44:00,
2013-02-07 18:49:00,32.5,28.5,29.09,SSE,150,0.0,0.0,85,0.00,,---,0.00,VWS V13.00,2013-02-08 03:49:00,
2013-02-07 18:54:00,32.5,28.5,29.09,SSE,150,0.0,0.0,85,0.00,,---,0.00,VWS V13.00,2013-02-08 03:54:00,
2013-02-07 18:59:00,32.4,28.4,29.09,SSE,150,0.0,0.0,85,0.00,,---,0.00,VWS V13.00,2013-02-08 03:59:00,
2013-02-07 19:04:00,32.2,28.2,29.09,SSE,150,0.0,0.0,85,0.00,,---,0.00,VWS V13.00,2013-02-08 04:04:00,
2013-02-07 19:09:00,32.2,28.2,29.09,SSE,150,0.0,0.0,85,0.00,,---,0.00,VWS V13.00,2013-02-08 04:09:00,
2013-02-07 19:14:00,32.4,28.6,29.09,SSE,150,0.0,0.0,86,0.00,,---,0.00,VWS V13.00,2013-02-08 04:14:00,
2013-02-07 19:19:00,32.5,28.8,29.09,SSE,150,0.0,0.0,86,0.00,,---,0.00,VWS V13.00,2013-02-08 04:19:00,
2013-02-07 19:24:00,32.7,29.0,29.09,SSE,150,0.0,0.0,86,0.00,,---,0.00,VWS V13.00,2013-02-08 04:24:00,
2013-02-07 19:29:00,32.4,28.6,29.09,SSE,150,0.0,0.0,86,0.00,,---,0.00,VWS V13.00,2013-02-08 04:29:00,
2013-02-07 19:34:00,32.5,28.8,29.09,SSE,150,0.0,0.0,86,0.00,,---,0.00,VWS V13.00,2013-02-08 04:34:00,
2013-02-07 19:39:00,32.4,28.6,29.12,SSE,150,0.0,0.0,86,0.00,,---,0.00,VWS V13.00,2013-02-08 04:39:00,
2013-02-07 19:44:00,32.4,28.6,29.12,SSE,150,0.0,0.0,86,0.00,,---,0.00,VWS V13.00,2013-02-08 04:44:00,
2013-02-07 19:49:00,32.4,28.6,29.12,SSE,150,0.0,0.0,86,0.00,,---,0.00,VWS V13.00,2013-02-08 04:49:00,
2013-02-07 19:54:00,32.2,28.5,29.12,SSE,150,0.0,0.0,86,0.00,,---,0.00,VWS V13.00,2013-02-08 04:54:00,
2013-02-07 19:59:00,32.2,28.5,29.12,SSE,150,0.0,0.0,86,0.00,,---,0.00,VWS V13.00,2013-02-08 04:59:00,
2013-02-07 20:00:00,32.2,28.5,29.12,SSE,150,0.0,0.0,86,0.00,,---,0.00,VWS V13.00,2013-02-08 05:00:00,
2013-02-07 20:05:00,32.0,28.3,29.12,SSE,150,0.0,0.0,86,0.00,,---,0.00,VWS V13.00,2013-02-08 05:05:00,
2013-02-07 20:10:00,31.8,28.1,29.12,SSE,150,0.0,0.0,86,0.00,,---,0.00,VWS V13.00,2013-02-08 05:10:00,
2013-02-07 20:15:00,32.0,28.3,29.12,SSE,150,0.0,0.0,86,0.00,,---,0.00,VWS V13.00,2013-02-08 05:15:00,
2013-02-07 20:20:00,32.0,28.3,29.12,SSE,150,0.0,0.0,86,0.00,,---,0.00,VWS V13.00,2013-02-08 05:20:00,
2013-02-07 20:25:00,32.2,28.8,29.12,SSE,150,0.0,0.0,87,0.00,,---,0.00,VWS V13.00,2013-02-08 05:25:00,
2013-02-07 20:30:00,32.0,28.6,29.12,SSE,150,0.0,0.0,87,0.00,,---,0.00,VWS V13.00,2013-02-08 05:30:00,
2013-02-07 20:35:00,32.0,28.6,29.12,SSE,150,0.0,0.0,87,0.00,,---,0.00,VWS V13.00,2013-02-08 05:35:00,
2013-02-07 20:40:00,32.2,28.8,29.12,SSE,150,0.0,0.0,87,0.00,,---,0.00,VWS V13.00,2013-02-08 05:40:00,
2013-02-07 20:45:00,32.2,28.8,29.12,SSE,150,0.0,0.0,87,0.00,,---,0.00,VWS V13.00,2013-02-08 05:45:00,
2013-02-07 20:50:00,32.0,28.6,29.12,SSE,150,0.0,0.0,87,0.00,,---,0.00,VWS V13.00,2013-02-08 05:50:00,
2013-02-07 20:55:00,31.6,27.9,29.12,SSE,150,0.0,0.0,86,0.00,,---,0.00,VWS V13.00,2013-02-08 05:55:00,
2013-02-07 21:00:00,31.3,27.6,29.12,SSE,150,0.0,0.0,86,0.00,,---,0.00,VWS V13.00,2013-02-08 06:00:00,
2013-02-07 21:05:00,31.3,27.9,29.12,SSE,150,0.0,0.0,87,0.00,,---,0.00,VWS V13.00,2013-02-08 06:05:00,
2013-02-07 21:10:00,31.1,27.7,29.12,SSE,150,0.0,0.0,87,0.00,,---,0.00,VWS V13.00,2013-02-08 06:10:00,
2013-02-07 21:15:00,31.1,27.7,29.12,SSE,150,0.0,0.0,87,0.00,,---,0.00,VWS V13.00,2013-02-08 06:15:00,
2013-02-07 21:20:00,30.7,27.1,29.15,SSE,150,0.0,0.0,86,0.00,,---,0.00,VWS V13.00,2013-02-08 06:20:00,
2013-02-07 21:25:00,30.6,27.2,29.15,SSE,150,0.0,0.0,87,0.00,,---,0.00,VWS V13.00,2013-02-08 06:25:00,
2013-02-07 21:30:00,30.6,27.2,29.15,SSE,150,0.0,0.0,87,0.00,,---,0.00,VWS V13.00,2013-02-08 06:30:00,
2013-02-07 21:35:00,30.6,27.2,29.15,SSE,150,0.0,0.0,87,0.00,,---,0.00,VWS V13.00,2013-02-08 06:35:00,
2013-02-07 21:40:00,30.7,27.3,29.15,SSE,150,0.0,0.0,87,0.00,,---,0.00,VWS V13.00,2013-02-08 06:40:00,
2013-02-07 21:45:00,30.4,27.3,29.15,SSE,150,0.0,0.0,88,0.00,,---,0.00,VWS V13.00,2013-02-08 06:45:00,
2013-02-07 21:50:00,30.4,27.3,29.15,SSE,150,0.0,0.0,88,0.00,,---,0.00,VWS V13.00,2013-02-08 06:50:00,
2013-02-07 21:55:00,30.6,27.4,29.15,SSE,150,0.0,0.0,88,0.00,,---,0.00,VWS V13.00,2013-02-08 06:55:00,
2013-02-07 22:00:00,30.4,27.3,29.15,SSE,150,0.0,0.0,88,0.00,,---,0.00,VWS V13.00,2013-02-08 07:00:00,
2013-02-07 22:05:00,30.0,26.9,29.15,SSE,150,0.0,0.0,88,0.00,,---,0.00,VWS V13.00,2013-02-08 07:05:00,
2013-02-07 22:10:00,29.8,26.7,29.15,SSE,150,0.0,0.0,88,0.00,,---,0.00,VWS V13.00,2013-02-08 07:10:00,
2013-02-07 22:15:00,30.0,26.9,29.15,SSE,150,0.0,0.0,88,0.00,,---,0.00,VWS V13.00,2013-02-08 07:15:00,
2013-02-07 22:20:00,30.2,27.1,29.15,SSE,150,0.0,0.0,88,0.00,,---,0.00,VWS V13.00,2013-02-08 07:20:00,
2013-02-07 22:25:00,30.2,27.1,29.15,SSE,150,0.0,0.0,88,0.00,,---,0.00,VWS V13.00,2013-02-08 07:25:00,
2013-02-07 22:30:00,30.2,27.4,29.15,SSE,150,0.0,0.0,89,0.00,,---,0.00,VWS V13.00,2013-02-08 07:30:00,
2013-02-07 22:35:00,30.2,27.1,29.15,SSE,150,0.0,0.0,88,0.00,,---,0.00,VWS V13.00,2013-02-08 07:35:00,
2013-02-07 22:40:00,30.2,27.4,29.15,SSE,150,0.0,0.0,89,0.00,,---,0.00,VWS V13.00,2013-02-08 07:40:00,
2013-02-07 22:45:00,30.2,27.4,29.15,SSE,150,0.0,0.0,89,0.00,,---,0.00,VWS V13.00,2013-02-08 07:45:00,
2013-02-07 22:50:00,30.2,27.4,29.15,SSE,150,0.0,0.0,89,0.00,,---,0.00,VWS V13.00,2013-02-08 07:50:00,
2013-02-07 22:55:00,30.2,27.4,29.18,SSE,150,0.0,0.0,89,0.00,,---,0.00,VWS V13.00,2013-02-08 07:55:00,
2013-02-07 23:00:00,30.4,27.3,29.18,SSE,150,0.0,0.0,88,0.00,,---,0.00,VWS V13.00,2013-02-08 08:00:00,
2013-02-07 23:05:00,30.4,27.3,29.18,SSE,150,0.0,0.0,88,0.00,,---,0.00,VWS V13.00,2013-02-08 08:05:00,
2013-02-07 23:10:00,30.4,27.3,29.18,SSE,150,0.0,0.0,88,0.00,,---,0.00,VWS V13.00,2013-02-08 08:10:00,
2013-02-07 23:15:00,30.2,27.4,29.18,SSE,150,0.0,0.0,89,0.00,,---,0.00,VWS V13.00,2013-02-08 08:15:00,
2013-02-07 23:20:00,30.2,27.4,29.18,SSE,150,0.0,0.0,89,0.00,,---,0.00,VWS V13.00,2013-02-08 08:20:00,
2013-02-07 23:25:00,30.6,27.4,29.18,SSE,150,0.0,0.0,88,0.00,,---,0.00,VWS V13.00,2013-02-08 08:25:00,
2013-02-07 23:30:00,30.7,27.9,29.18,SSE,150,0.0,0.0,89,0.00,,---,0.00,VWS V13.00,2013-02-08 08:30:00,
2013-02-07 23:35:00,30.7,27.9,29.18,SSE,150,0.0,0.0,89,0.00,,---,0.00,VWS V13.00,2013-02-08 08:35:00,
2013-02-07 23:40:00,30.9,28.1,29.18,SSE,150,0.0,0.0,89,0.00,,---,0.00,VWS V13.00,2013-02-08 08:40:00,
2013-02-07 23:45:00,31.1,28.2,29.18,SSE,150,0.0,0.0,89,0.00,,---,0.00,VWS V13.00,2013-02-08 08:45:00,
2013-02-07 23:50:00,31.1,28.2,29.18,SSE,150,0.0,0.0,89,0.00,,---,0.00,VWS V13.00,2013-02-08 08:50:00,
2013-02-07 23:55:00,31.1,28.2,29.18,SSE,150,0.0,0.0,89,0.00,,---,0.00,VWS V13.00,2013-02-08 08:55:00,